Weather History for KDLH - December, 2011

Change the Weather History Date:

Friday, December 30, 2011

  Actual Average Record
Temperature  
Mean Temperature 20 °F 11 °F  
Max Temperature 26 °F 19 °F 43 °F (1901)
Min Temperature 14 °F 3 °F -26 °F (1938)
Degree Days  
Heating Degree Days 45 54  
Month to date heating degree days 1292 1504  
Since 1 July heating degree days 3094 3717  
Cooling Degree Days 0 0  
Month to date cooling degree days 0 0  
Year to date cooling degree days 314 204  
Moisture  
Dew Point 17 °F    
Average Humidity 83    
Maximum Humidity 92    
Minimum Humidity 74    
Precipitation  
Precipitation T in 0.03 in 0.83 in (2010)
Month to date precipitation 0.45 1.17  
Year to date precipitation 25.96 30.92  
Snow  
Snow T in 0.70 in 10.30 in (1996)
Month to date snowfall 7.1 17.1  
Since 1 July snowfall 10.8 33.2  
Snow Depth 4.00 in    
Sea Level Pressure  
Sea Level Pressure 29.78 in    
Wind  
Wind Speed 2 mph (SSE)    
Max Wind Speed 7 mph    
Max Gust Speed 9 mph    
Visibility 10 miles    
Events Snow    
T = Trace of Precipitation, MM = Missing Value Source: NWS Daily Summary

Daily Weather History Graph

Daily Weather History Graph

Search for Another Location

Airport or City:

Trip Planner

Search our weather history database for the weather conditions in past years. The results will help you decide how hot, cold, wet, or windy it might be!

Date:

Astronomy

Dec. 30, 2011 Rise Set
Actual Time 7:53 AM CST 4:28 PM CST
Civil Twilight 7:18 AM CST 5:04 PM CST
Nautical Twilight 6:40 AM CST 5:42 PM CST
Astronomical Twilight 6:03 AM CST 6:19 PM CST
Moon 10:48 AM CST (12/30) 11:31 PM CST (12/30)
Length of Visible Light 9h 45m
Length of Day
8h 34m
Waxing Crescent, 36% of the Moon is Illuminated
Dec 30
Waxing Crescent
Jan 1
First Quarter
Jan 9
Full
Jan 16
Last Quarter
Jan 23
New

Hourly Weather History & Observations

Time (CST) Temp. Windchill Dew Point Humidity Pressure Visibility Wind Dir Wind Speed Gust Speed Precip Events Conditions
12:55 AM 19.9 °F - 15.1 °F 81% 29.72 in 10.0 mi Calm Calm - N/A   Overcast
1:55 AM 19.9 °F 14.9 °F 15.1 °F 81% 29.72 in 10.0 mi SSE 3.5 mph - N/A   Overcast
2:21 AM 19.4 °F - 15.8 °F 86% 29.65 in 10.0 mi Calm Calm - N/A   Overcast
2:55 AM 19.9 °F - 15.1 °F 81% 29.73 in 10.0 mi Calm Calm - N/A   Overcast
3:55 AM 21.0 °F - 16.0 °F 81% 29.73 in 10.0 mi Calm Calm - N/A   Overcast
4:55 AM 19.9 °F - 16.0 °F 85% 29.73 in 10.0 mi Calm Calm - N/A   Overcast
5:55 AM 19.9 °F 14.9 °F 16.0 °F 85% 29.73 in 8.0 mi SE 3.5 mph - 0.00 in Snow Light Snow
6:55 AM 19.4 °F 14.3 °F 17.6 °F 93% 29.66 in 10.0 mi East 3.5 mph - N/A   Overcast
7:55 AM 21.0 °F 16.2 °F 18.0 °F 88% 29.75 in 10.0 mi SE 3.5 mph - N/A   Overcast
8:55 AM 21.2 °F 14.9 °F 17.6 °F 86% 29.70 in 10.0 mi NNW 4.6 mph - N/A   Overcast
9:55 AM 21.9 °F - 17.1 °F 82% 29.79 in 10.0 mi Calm Calm - N/A   Overcast
10:55 AM 23.0 °F - 18.0 °F 81% 29.79 in 10.0 mi Calm Calm - N/A   Overcast
11:55 AM 24.1 °F - 19.0 °F 81% 29.79 in 10.0 mi Calm Calm - N/A   Overcast
12:55 PM 24.8 °F - 19.4 °F 80% 29.70 in 10.0 mi Calm Calm - N/A   Overcast
1:15 PM 24.8 °F - 19.4 °F 80% 29.70 in 10.0 mi Calm Calm - N/A   Overcast
1:55 PM 25.0 °F - 19.0 °F 78% 29.78 in 10.0 mi Calm Calm - N/A   Overcast
2:55 PM 26.1 °F - 19.0 °F 75% 29.79 in 10.0 mi Calm Calm - N/A   Overcast
3:55 PM 25.0 °F 20.7 °F 19.0 °F 78% 29.82 in 10.0 mi SSW 3.5 mph - N/A   Overcast
4:55 PM 25.0 °F - 18.0 °F 75% 29.84 in 10.0 mi Calm Calm - N/A   Overcast
5:55 PM 24.1 °F - 18.0 °F 77% 29.86 in 10.0 mi Calm Calm - N/A   Overcast
6:26 PM 21.2 °F - 17.6 °F 86% 29.78 in 10.0 mi Calm Calm - N/A   Scattered Clouds
6:55 PM 21.0 °F 16.2 °F 17.1 °F 85% 29.85 in 10.0 mi ENE 3.5 mph - N/A   Scattered Clouds
7:55 PM 19.0 °F - 15.1 °F 85% 29.86 in 10.0 mi Calm Calm - N/A   Partly Cloudy
8:43 PM 14.0 °F - 10.4 °F 86% 29.77 in 8.0 mi Calm Calm - N/A   Mostly Cloudy
8:55 PM 14.0 °F - 10.9 °F 88% 29.87 in 7.0 mi Calm Calm - N/A   Overcast
9:45 PM 17.6 °F 10.7 °F 14.0 °F 86% 29.78 in 9.0 mi South 4.6 mph - N/A   Overcast
9:55 PM 19.9 °F 13.4 °F 15.1 °F 81% 29.86 in 8.0 mi South 4.6 mph - N/A   Overcast
10:55 PM 21.9 °F 14.5 °F 19.0 °F 89% 29.88 in 10.0 mi SSW 5.8 mph - N/A   Overcast
11:46 PM 19.4 °F - 15.8 °F 86% 29.79 in 9.0 mi Calm Calm - N/A   Overcast
11:55 PM 19.9 °F 14.9 °F 17.1 °F 89% 29.86 in 9.0 mi South 3.5 mph - N/A   Overcast